SRQ6460 RPVM-RPVB

Flight info

Callsign SRQ6460
Flight time N/A
Altitude 12000
Route PARAO4P PARAO W6A CADIZ CADIZ3P
Aircraft AT76/M-SDFGIRY/S

Departure

Time 2026-05-05 17:05
Airport Mactan Cebu International Airport (RPVM)

Arrival

Time N/A
Airport Bacolod-Silay International Airport (RPVB)
Time Latitude Longitude Altitude Speed Heading
2026-05-05 16:34 10.31703 123.98115 35 ft 0 kts 317°
2026-05-05 16:36 10.31702 123.98115 35 ft 0 kts 317°
2026-05-05 16:42 10.31702 123.98116 35 ft 0 kts 317°
2026-05-05 16:47 10.31701 123.98116 35 ft 0 kts 317°
2026-05-05 16:52 10.31690 123.98127 35 ft 2 kts 314°
2026-05-05 16:53 10.31679 123.98140 35 ft 2 kts 305°
2026-05-05 16:53 10.31673 123.98155 35 ft 2 kts 231°
2026-05-05 16:53 10.31676 123.98158 35 ft 0 kts 223°
2026-05-05 16:57 10.31660 123.98144 35 ft 7 kts 221°
2026-05-05 16:57 10.31609 123.98118 35 ft 10 kts 181°
2026-05-05 16:57 10.31559 123.98149 35 ft 7 kts 130°
2026-05-05 16:57 10.31524 123.98189 35 ft 8 kts 131°
2026-05-05 16:58 10.31457 123.98231 36 ft 10 kts 186°
2026-05-05 16:58 10.31393 123.98175 36 ft 14 kts 225°
2026-05-05 16:58 10.31316 123.98100 35 ft 17 kts 225°
2026-05-05 16:58 10.31229 123.98012 35 ft 18 kts 225°
2026-05-05 16:59 10.31135 123.97920 35 ft 19 kts 224°
2026-05-05 16:59 10.31038 123.97821 34 ft 20 kts 225°
2026-05-05 16:59 10.30938 123.97722 35 ft 20 kts 224°
2026-05-05 16:59 10.30838 123.97621 35 ft 20 kts 225°
2026-05-05 17:00 10.30736 123.97520 35 ft 20 kts 224°
2026-05-05 17:00 10.30636 123.97420 36 ft 20 kts 224°
2026-05-05 17:00 10.30534 123.97318 35 ft 21 kts 225°
2026-05-05 17:00 10.30433 123.97215 36 ft 21 kts 225°
2026-05-05 17:01 10.30330 123.97111 35 ft 21 kts 224°
2026-05-05 17:01 10.30225 123.97006 35 ft 21 kts 225°
2026-05-05 17:01 10.30122 123.96901 35 ft 21 kts 225°
2026-05-05 17:01 10.30018 123.96797 35 ft 21 kts 224°
2026-05-05 17:02 10.29921 123.96707 35 ft 15 kts 204°
2026-05-05 17:02 10.29839 123.96751 34 ft 14 kts 134°
2026-05-05 17:02 10.29768 123.96824 32 ft 15 kts 134°
2026-05-05 17:02 10.29710 123.96885 30 ft 5 kts 123°
2026-05-05 17:03 10.29714 123.96898 30 ft 1 kts 59°
2026-05-05 17:03 10.29720 123.96905 30 ft 2 kts 46°
2026-05-05 17:03 10.29732 123.96917 30 ft 0 kts 43°
2026-05-05 17:03 10.29733 123.96918 30 ft 1 kts 44°
2026-05-05 17:04 10.29846 123.97031 29 ft 52 kts 44°
2026-05-05 17:04 10.30241 123.97427 33 ft 106 kts 44°
2026-05-05 17:04 10.30860 123.98051 66 ft 143 kts 44°
2026-05-05 17:04 10.31605 123.98738 514 ft 145 kts 38°
2026-05-05 17:05 10.32369 123.99396 1022 ft 145 kts 45°
2026-05-05 17:05 10.33066 124.00132 1424 ft 145 kts 47°
2026-05-05 17:05 10.33747 124.00876 1783 ft 144 kts 47°
2026-05-05 17:05 10.34443 124.01619 2123 ft 145 kts 47°
2026-05-05 17:06 10.35138 124.02351 2485 ft 143 kts 47°
2026-05-05 17:06 10.35904 124.02993 2828 ft 146 kts 18°
2026-05-05 17:06 10.36871 124.02772 3100 ft 155 kts 319°
2026-05-05 17:06 10.37574 124.01922 3336 ft 160 kts 314°
2026-05-05 17:07 10.38267 124.01030 3654 ft 163 kts 294°
2026-05-05 17:07 10.38216 123.99908 3944 ft 166 kts 237°
2026-05-05 17:07 10.37318 123.99252 4232 ft 162 kts 184°
2026-05-05 17:07 10.36296 123.99544 4502 ft 154 kts 130°
2026-05-05 17:08 10.35959 124.00515 4733 ft 151 kts 77°
2026-05-05 17:08 10.36580 124.01335 4973 ft 155 kts 23°
2026-05-05 17:08 10.37641 124.01281 5221 ft 161 kts 332°
2026-05-05 17:08 10.38562 124.00613 5448 ft 165 kts 326°
2026-05-05 17:09 10.39476 123.99907 5740 ft 165 kts 324°
2026-05-05 17:09 10.40386 123.99188 6054 ft 166 kts 324°
2026-05-05 17:09 10.41156 123.98321 6331 ft 164 kts 313°
2026-05-05 17:09 10.41687 123.97775 6464 ft 167 kts 317°
2026-05-05 17:10 10.42397 123.96845 6731 ft 164 kts 303°
2026-05-05 17:10 10.42983 123.95846 6919 ft 170 kts 308°
2026-05-05 17:10 10.43799 123.94966 7158 ft 172 kts 318°
2026-05-05 17:10 10.44674 123.94136 7440 ft 172 kts 319°
2026-05-05 17:11 10.45544 123.93301 7720 ft 172 kts 318°
2026-05-05 17:11 10.46405 123.92447 7995 ft 174 kts 316°
2026-05-05 17:11 10.47255 123.91549 8237 ft 178 kts 314°
2026-05-05 17:11 10.48091 123.90617 8521 ft 179 kts 313°
2026-05-05 17:12 10.48921 123.89673 8801 ft 180 kts 313°
2026-05-05 17:12 10.49758 123.88724 9060 ft 181 kts 313°
2026-05-05 17:12 10.50596 123.87770 9344 ft 181 kts 313°
2026-05-05 17:12 10.51441 123.86816 9615 ft 182 kts 313°
2026-05-05 17:13 10.52290 123.85853 9840 ft 185 kts 313°
2026-05-05 17:13 10.53154 123.84876 10065 ft 187 kts 313°
2026-05-05 17:13 10.54025 123.83892 10297 ft 188 kts 313°
2026-05-05 17:13 10.54900 123.82899 10536 ft 189 kts 313°
2026-05-05 17:14 10.55781 123.81903 10754 ft 190 kts 313°
2026-05-05 17:14 10.56668 123.80898 10991 ft 191 kts 313°
2026-05-05 17:14 10.57559 123.79889 11218 ft 192 kts 313°
2026-05-05 17:14 10.58454 123.78874 11435 ft 193 kts 313°
2026-05-05 17:15 10.59355 123.77854 11656 ft 194 kts 313°
2026-05-05 17:15 10.60274 123.76815 11781 ft 202 kts 313°
2026-05-05 17:15 10.61237 123.75725 11833 ft 212 kts 313°
2026-05-05 17:15 10.62245 123.74582 11853 ft 221 kts 313°
2026-05-05 17:16 10.63290 123.73399 11871 ft 229 kts 313°
2026-05-05 17:16 10.64368 123.72176 11877 ft 236 kts 313°
2026-05-05 17:16 10.65475 123.70920 11876 ft 241 kts 313°
2026-05-05 17:16 10.66592 123.69655 11879 ft 246 kts 313°
2026-05-05 17:17 10.67743 123.68350 11883 ft 250 kts 313°
2026-05-05 17:17 10.68909 123.67029 11878 ft 252 kts 313°
2026-05-05 17:17 10.70085 123.65695 11878 ft 254 kts 313°
2026-05-05 17:17 10.71271 123.64352 11881 ft 256 kts 313°
2026-05-05 17:18 10.72462 123.63000 11879 ft 257 kts 313°
2026-05-05 17:18 10.73660 123.61643 11886 ft 258 kts 313°
2026-05-05 17:18 10.74861 123.60280 11880 ft 259 kts 313°
2026-05-05 17:18 10.76067 123.58913 11882 ft 260 kts 313°
2026-05-05 17:19 10.77275 123.57541 11880 ft 261 kts 313°
2026-05-05 17:19 10.78486 123.56168 11876 ft 261 kts 313°
2026-05-05 17:19 10.79697 123.54791 11878 ft 261 kts 313°
2026-05-05 17:19 10.80912 123.53414 11881 ft 262 kts 313°
2026-05-05 17:20 10.82128 123.52035 11882 ft 262 kts 313°
2026-05-05 17:20 10.83340 123.50657 11879 ft 262 kts 313°
2026-05-05 17:20 10.84556 123.49277 11879 ft 262 kts 313°
2026-05-05 17:20 10.85769 123.47899 11883 ft 261 kts 313°
2026-05-05 17:21 10.86982 123.46522 11884 ft 261 kts 313°
2026-05-05 17:21 10.88195 123.45146 11885 ft 261 kts 313°
2026-05-05 17:21 10.89406 123.43770 11886 ft 261 kts 313°
2026-05-05 17:22 10.91835 123.41015 11882 ft 262 kts 313°
2026-05-05 17:22 10.93071 123.39659 11880 ft 261 kts 316°
2026-05-05 17:22 10.94382 123.38377 11884 ft 261 kts 319°
2026-05-05 17:22 10.95723 123.37129 11880 ft 261 kts 319°
2026-05-05 17:23 10.97065 123.35882 11881 ft 261 kts 319°
2026-05-05 17:23 10.98405 123.34631 11879 ft 261 kts 318°
2026-05-05 17:23 10.99730 123.33366 11878 ft 261 kts 318°
2026-05-05 17:23 11.00779 123.31883 11882 ft 261 kts 289°
2026-05-05 17:24 11.01097 123.30076 11882 ft 260 kts 274°
2026-05-05 17:24 11.01050 123.28237 11881 ft 261 kts 262°
2026-05-05 17:24 11.00708 123.26430 11878 ft 260 kts 256°
2026-05-05 17:24 11.00258 123.24646 11881 ft 260 kts 254°
2026-05-05 17:25 10.99827 123.22966 11880 ft 261 kts 255°